Regional Weather Roundup
Issued by NWS

Home | Current Version | Previous Version | Text Only | Print | Product List | Glossary Off
Versions: 1 2 3 4 5 6 7 8 9 10 11 12 13 14 15 16 17 18 19 20 21 22 23 24 25 26 27 28 29 30 31 32 33 34 35 36 37 38 39 40 41 42 43 44 45 46 47 48 49 50

000
ASUS45 KBOI 271010
RWRID
WEATHER ROUNDUP FOR IDAHO
NATIONAL WEATHER SERVICE BOISE ID
300 AM MST TUE JAN 27 2015

NOTE: "FAIR" INDICATES FEW OR NO CLOUDS BELOW 12000 FEET
WITH NO SIGNIFICANT WEATHER AND/OR OBSTRUCTIONS TO VISIBILITY

IDZ012-014-271100-
SOUTHWEST IDAHO


CITY           SKY/WX    TMP DP  RH WIND       PRES   REMARKS
BOISE          FOG       29  29 100 CALM      30.12S VSB 1/4
CALDWELL       CLOUDY    28  21  74 NE3       30.14F VSB 1/2
MOUNTAIN HOME  FRZ RAIN  29  28  97 E3        30.10F VSB<1/4
$$

IDZ016-017-271100-
SOUTHCENTRAL IDAHO


CITY           SKY/WX    TMP DP  RH WIND       PRES   REMARKS
BURLEY         PTCLDY    33  30  88 E7        30.08F WCI  27
JEROME         PTCLDY    36  30  79 NE16      30.09F WCI  26
TWIN FALLS     PTCLDY    32  28  85 SE7       30.09F WCI  26
$$

IDZ019>023-271100-
SOUTHEAST IDAHO


CITY           SKY/WX    TMP DP  RH WIND       PRES   REMARKS
IDAHO FALLS    PTCLDY    26  23  88 NW6       30.16F WCI  19
POCATELLO      CLEAR     26  26 100 NE5       30.15F WCI  20
REXBURG        MOCLDY    23  18  81 NE5       30.16F WCI  17
$$

IDZ006-010-011-018-031-032-271100-
CENTRAL IDAHO MOUNTAINS


CITY           SKY/WX    TMP DP  RH WIND       PRES   REMARKS
MCCALL         CLEAR     23  21  92 CALM      30.09F
HAILEY         CLEAR     34  27  75 NW10      30.15F WCI  26
STANLEY          N/A     15  11  83 CALM      30.18S
SALMON         CLOUDY   N/A N/A N/A CALM      30.20S VSB 1/2
CHALLIS        PTCLDY    24  22  91 CALM      30.16F
$$

IDZ002-004-006-007-026-271100-
NORTHERN IDAHO


CITY           SKY/WX    TMP DP  RH WIND       PRES   REMARKS
LEWISTON       PTCLDY    44  37  76 E8        30.02R
LOWELL           N/A     35  33  92 CALM      30.13F
COEUR D`ALENE  PTCLDY    30  27  86 NE8       30.00S WCI  23
MULLAN PASS    PTCLDY    45  22  40 SW8       30.05S
$$



USA.gov is the U.S. government's official web portal to all federal, state and local government web resources and services.